�������l�o���
Date,Time,MP-1(��Sv/h),MP-2(��Sv/h),MP-3(��Sv/h),MP-4(��Sv/h),MP-5(��Sv/h),MP-6(��Sv/h),MP-7(��Sv/h),MP-8(��Sv/h),����,����(m/s),���J
2018/09/21,00:00,0.777,1.150,0.826,1.443,1.050,0.460,0.798,0.758,��쐼,2.0,�L
2018/09/21,00:10,0.777,1.149,0.824,1.440,1.048,0.461,0.799,0.759,�쐼,2.0,�L
2018/09/21,00:20,0.777,1.149,0.823,1.441,1.051,0.459,0.796,0.759,��쐼,1.9,�L
2018/09/21,00:30,0.778,1.148,0.825,1.443,1.053,0.459,0.797,0.760,�쐼,1.7,�L
2018/09/21,00:40,0.777,1.153,0.823,1.439,1.050,0.458,0.797,0.759,�쐼,1.2,�L
2018/09/21,00:50,0.775,1.151,0.822,1.442,1.051,0.460,0.797,0.760,���쐼,1.4,�L
2018/09/21,01:00,0.779,1.149,0.824,1.441,1.052,0.459,0.797,0.760,���쐼,1.7,�L
2018/09/21,01:10,0.777,1.152,0.823,1.439,1.053,0.459,0.798,0.759,��쐼,1.1,�L
2018/09/21,01:20,0.777,1.151,0.823,1.442,1.054,0.461,0.799,0.760,��쐼,0.8,�L
2018/09/21,01:30,0.776,1.148,0.823,1.445,1.051,0.459,0.798,0.759,�쓌,1.4,�L
2018/09/21,01:40,0.774,1.151,0.824,1.443,1.049,0.459,0.797,0.758,��쓌,1.1,�L
2018/09/21,01:50,0.774,1.150,0.821,1.438,1.049,0.460,0.797,0.757,��쓌,3.8,�L
2018/09/21,02:00,0.772,1.145,0.821,1.435,1.047,0.460,0.796,0.757,��쓌,2.8,�L
2018/09/21,02:10,0.774,1.145,0.821,1.436,1.045,0.459,0.795,0.756,��쓌,0.9,�L
2018/09/21,02:20,0.772,1.145,0.818,1.433,1.045,0.456,0.795,0.756,��,1.7,�L
2018/09/21,02:30,0.774,1.142,0.819,1.434,1.046,0.458,0.794,0.755,��,1.7,�L
2018/09/21,02:40,0.774,1.142,0.818,1.431,1.040,0.458,0.793,0.754,��쓌,1.2,�L
2018/09/21,02:50,0.771,1.143,0.819,1.432,1.042,0.458,0.793,0.756,��쐼,1.5,�L
2018/09/21,03:00,0.772,1.145,0.821,1.433,1.043,0.459,0.794,0.754,��쐼,1.5,�L
2018/09/21,03:10,0.773,1.142,0.819,1.434,1.042,0.458,0.793,0.755,��쐼,0.9,�L
2018/09/21,03:20,0.772,1.146,0.818,1.433,1.044,0.457,0.796,0.755,-,CALM,�L
2018/09/21,03:30,0.772,1.143,0.820,1.433,1.042,0.457,0.794,0.756,-,CALM,�L
2018/09/21,03:40,0.773,1.145,0.820,1.433,1.047,0.457,0.794,0.758,-,CALM,�L
2018/09/21,03:50,0.770,1.146,0.817,1.433,1.045,0.457,0.794,0.755,-,CALM,�L
2018/09/21,04:00,0.773,1.146,0.818,1.432,1.047,0.455,0.795,0.756,���쓌,0.6,�L
2018/09/21,04:10,0.773,1.144,0.816,1.434,1.047,0.457,0.795,0.758,-,CALM,�L
2018/09/21,04:20,0.772,1.146,0.818,1.435,1.047,0.457,0.797,0.760,-,CALM,�L
2018/09/21,04:30,0.771,1.150,0.819,1.435,1.045,0.459,0.797,0.757,���쓌,0.9,�L
2018/09/21,04:40,0.774,1.148,0.818,1.437,1.047,0.458,0.795,0.758,-,CALM,�L
2018/09/21,04:50,0.773,1.148,0.819,1.438,1.047,0.457,0.795,0.759,-,CALM,�L
2018/09/21,05:00,0.773,1.148,0.818,1.437,1.048,0.456,0.795,0.759,�k��,0.6,�L
2018/09/21,05:10,0.772,1.148,0.819,1.436,1.047,0.459,0.796,0.758,���k��,0.8,�L
2018/09/21,05:20,0.773,1.147,0.817,1.436,1.048,0.458,0.796,0.759,��,0.9,�L
2018/09/21,05:30,0.772,1.146,0.819,1.434,1.047,0.457,0.795,0.756,�k��,0.9,�L
2018/09/21,05:40,0.773,1.148,0.819,1.437,1.045,0.458,0.794,0.757,���k��,1.2,�L
2018/09/21,05:50,0.773,1.145,0.817,1.435,1.046,0.458,0.795,0.757,���k��,1.4,�L
2018/09/21,06:00,0.772,1.146,0.816,1.435,1.047,0.455,0.795,0.755,���k��,1.1,�L
2018/09/21,06:10,0.772,1.144,0.819,1.432,1.047,0.452,0.795,0.754,�k��,0.9,�L
2018/09/21,06:20,0.773,1.143,0.820,1.433,1.045,0.456,0.792,0.754,�k��,1.7,�L
2018/09/21,06:30,0.773,1.144,0.817,1.433,1.045,0.459,0.795,0.754,�k��,1.7,�L
2018/09/21,06:40,0.774,1.143,0.818,1.432,1.045,0.458,0.795,0.753,�k�k��,1.2,�L
2018/09/21,06:50,0.772,1.144,0.817,1.431,1.043,0.458,0.794,0.756,�k�k��,1.2,�L
2018/09/21,07:00,0.772,1.143,0.816,1.430,1.043,0.458,0.794,0.756,�k�k��,0.8,�L
2018/09/21,07:10,0.772,1.142,0.817,1.433,1.045,0.458,0.794,0.755,�k�k��,0.9,�L
2018/09/21,07:20,0.771,1.141,0.816,1.431,1.044,0.457,0.796,0.755,�k�k��,1.5,�L
2018/09/21,07:30,0.773,1.144,0.815,1.430,1.046,0.457,0.796,0.757,�k�k��,2.3,�L
2018/09/21,07:40,0.771,1.143,0.815,1.433,1.045,0.457,0.794,0.755,�k�k��,2.2,�L
2018/09/21,07:50,0.771,1.142,0.816,1.430,1.043,0.456,0.795,0.753,�k�k��,2.6,�L
2018/09/21,08:00,0.772,1.141,0.814,1.433,1.043,0.457,0.795,0.755,�k�k��,3.2,�L
2018/09/21,08:10,0.771,1.143,0.816,1.432,1.042,0.458,0.795,0.755,�k�k��,3.2,�L
2018/09/21,08:20,0.770,1.141,0.814,1.427,1.039,0.458,0.793,0.753,�k�k��,2.9,�L
2018/09/21,08:30,0.769,1.136,0.812,1.423,1.039,0.457,0.793,0.753,�k�k��,3.5,�L
2018/09/21,08:40,0.770,1.134,0.813,1.425,1.036,0.457,0.790,0.754,�k�k��,3.4,�L
2018/09/21,08:50,0.771,1.135,0.810,1.422,1.036,0.456,0.793,0.753,�k,3.7,�L
2018/09/21,09:00,0.769,1.130,0.813,1.422,1.033,0.454,0.791,0.750,�k,3.1,�L
2018/09/21,09:10,0.763,1.121,0.809,1.410,1.024,0.452,0.789,0.749,�k�k��,2.8,�L
2018/09/21,09:20,0.762,1.118,0.805,1.411,1.020,0.455,0.788,0.747,��,1.2,�L
2018/09/21,09:30,0.765,1.120,0.807,1.412,1.024,0.453,0.789,0.750,���k��,1.2,�L
2018/09/21,09:40,0.767,1.118,0.809,1.411,1.022,0.455,0.789,0.752,��,1.2,�L
2018/09/21,09:50,0.767,1.118,0.810,1.412,1.025,0.456,0.790,0.752,��쓌,0.6,�L
2018/09/21,10:00,0.767,1.122,0.810,1.413,1.025,0.457,0.789,0.751,-,CALM,�L
2018/09/21,10:10,0.766,1.120,0.809,1.409,1.023,0.456,0.790,0.748,��,1.7,�L
2018/09/21,10:20,0.761,1.116,0.809,1.409,1.021,0.456,0.787,0.749,�쓌,2.0,�L
2018/09/21,10:30,0.768,1.119,0.808,1.410,1.024,0.457,0.789,0.752,���쓌,0.9,�L
2018/09/21,10:40,0.769,1.123,0.811,1.413,1.028,0.459,0.789,0.752,��,1.1,�L
2018/09/21,10:50,0.767,1.120,0.813,1.410,1.024,0.458,0.787,0.750,���쓌,4.6,�L
2018/09/21,11:00,0.770,1.119,0.808,1.406,1.023,0.455,0.789,0.749,��,5.0,�L
2018/09/21,11:10,0.768,1.123,0.809,1.411,1.022,0.456,0.788,0.751,��,4.4,�L
2018/09/21,11:20,0.769,1.124,0.811,1.412,1.022,0.456,0.789,0.750,��,6.7,�L
2018/09/21,11:30,0.770,1.120,0.809,1.412,1.021,0.456,0.790,0.750,���쓌,7.0,�L
2018/09/21,11:40,0.768,1.124,0.811,1.413,1.023,0.458,0.789,0.752,��,5.2,�L
2018/09/21,11:50,0.770,1.126,0.810,1.415,1.025,0.458,0.790,0.751,��,4.1,�L
2018/09/21,12:00,0.769,1.124,0.810,1.413,1.024,0.458,0.789,0.750,��,3.1,�L
2018/09/21,12:10,0.770,1.126,0.809,1.414,1.021,0.458,0.789,0.749,���쓌,4.3,�L
2018/09/21,12:20,0.768,1.126,0.810,1.413,1.021,0.458,0.788,0.749,���쓌,4.8,�L
2018/09/21,12:30,0.767,1.128,0.809,1.413,1.019,0.458,0.789,0.752,���쓌,3.9,�L
2018/09/21,12:40,0.764,1.116,0.806,1.405,1.012,0.454,0.784,0.743,���쓌,6.1,�L
2018/09/21,12:50,0.761,1.119,0.805,1.405,1.014,0.456,0.785,0.746,���쓌,7.1,�L
2018/09/21,13:00,0.765,1.121,0.807,1.408,1.016,0.457,0.787,0.748,���쓌,7.2,�L
2018/09/21,13:10,0.765,1.124,0.808,1.410,1.019,0.457,0.790,0.749,���쓌,7.2,�L
2018/09/21,13:20,0.765,1.127,0.808,1.413,1.020,0.457,0.790,0.750,���쓌,8.3,�L
2018/09/21,13:30,0.762,1.122,0.805,1.415,1.017,0.457,0.789,0.748,���쓌,8.3,�L
2018/09/21,13:40,0.763,1.122,0.804,1.410,1.014,0.455,0.792,0.749,���쓌,7.7,�L
2018/09/21,13:50,0.766,1.122,0.807,1.414,1.019,0.459,0.789,0.750,���쓌,9.1,�L
2018/09/21,14:00,0.765,1.126,0.806,1.414,1.016,0.457,0.790,0.750,���쓌,6.5,�L
2018/09/21,14:10,0.767,1.126,0.805,1.412,1.015,0.457,0.788,0.746,���쓌,7.3,�L
2018/09/21,14:20,0.765,1.122,0.803,1.408,1.010,0.457,0.787,0.747,���쓌,8.2,�L
2018/09/21,14:30,0.763,1.121,0.807,1.404,1.006,0.455,0.784,0.746,��,9.6,�L
2018/09/21,14:40,0.764,1.119,0.803,1.405,1.006,0.454,0.785,0.745,��,8.3,�L
2018/09/21,14:50,0.762,1.117,0.803,1.400,1.004,0.458,0.785,0.746,��,8.4,�L
2018/09/21,15:00,0.764,1.118,0.805,1.402,1.007,0.457,0.786,0.745,��,7.7,�L
2018/09/21,15:10,0.766,1.122,0.806,1.403,1.007,0.459,0.786,0.747,���쓌,7.9,�L
2018/09/21,15:20,0.765,1.122,0.806,1.408,1.012,0.458,0.786,0.746,���쓌,7.7,�L
2018/09/21,15:30,0.764,1.124,0.807,1.406,1.011,0.459,0.788,0.748,���쓌,7.1,�L
2018/09/21,15:40,0.763,1.115,0.804,1.405,1.005,0.458,0.787,0.747,��,7.4,�L
2018/09/21,15:50,0.762,1.113,0.804,1.403,1.002,0.457,0.786,0.747,���쓌,8.9,�L
2018/09/21,16:00,0.762,1.120,0.804,1.398,1.001,0.456,0.785,0.746,���쓌,8.1,�L
2018/09/21,16:10,0.762,1.115,0.804,1.396,0.998,0.455,0.785,0.744,��,8.6,�L
2018/09/21,16:20,0.757,1.110,0.798,1.392,0.997,0.455,0.785,0.743,���쓌,9.1,�L
2018/09/21,16:30,0.756,1.105,0.799,1.391,0.999,0.457,0.785,0.744,��,6.6,�L
2018/09/21,16:40,0.760,1.113,0.803,1.397,1.002,0.458,0.786,0.745,���k��,7.6,�L
2018/09/21,16:50,0.761,1.116,0.804,1.398,1.002,0.455,0.785,0.745,���k��,9.1,�L
2018/09/21,17:00,0.763,1.118,0.802,1.404,1.001,0.455,0.787,0.745,��,8.5,�L
2018/09/21,17:10,0.760,1.116,0.803,1.402,1.000,0.456,0.787,0.743,��,7.5,�L
2018/09/21,17:20,0.759,1.113,0.802,1.399,0.998,0.455,0.786,0.745,��,7.1,�L
2018/09/21,17:30,0.758,1.111,0.800,1.396,0.992,0.454,0.784,0.745,��,5.6,�L
2018/09/21,17:40,0.759,1.110,0.802,1.395,0.995,0.455,0.784,0.745,���쓌,6.5,�L
2018/09/21,17:50,0.760,1.111,0.802,1.394,0.995,0.455,0.784,0.745,���쓌,8.5,�L
2018/09/21,18:00,0.761,1.111,0.803,1.400,0.997,0.457,0.784,0.745,���쓌,6.8,�L
2018/09/21,18:10,0.760,1.113,0.803,1.398,0.996,0.458,0.782,0.744,�쓌,5.3,�L
2018/09/21,18:20,0.760,1.112,0.802,1.398,0.996,0.456,0.784,0.744,���쓌,6.6,�L
2018/09/21,18:30,0.759,1.106,0.800,1.394,0.990,0.455,0.781,0.742,���쓌,7.2,�L
2018/09/21,18:40,0.758,1.110,0.802,1.395,0.991,0.455,0.783,0.742,���쓌,5.7,�L
2018/09/21,18:50,0.757,1.103,0.798,1.395,0.988,0.456,0.781,0.742,�쓌,7.9,�L
2018/09/21,19:00,0.756,1.102,0.799,1.396,0.989,0.456,0.781,0.743,���쓌,7.8,�L
2018/09/21,19:10,0.758,1.108,0.802,1.395,0.990,0.457,0.783,0.745,���쓌,7.2,�L
2018/09/21,19:20,0.757,1.111,0.800,1.396,0.989,0.455,0.783,0.744,���쓌,7.6,�L
2018/09/21,19:30,0.759,1.113,0.802,1.397,0.991,0.455,0.782,0.745,���쓌,7.3,�L
2018/09/21,19:40,0.760,1.116,0.803,1.399,0.989,0.457,0.784,0.744,���쓌,5.6,�L
2018/09/21,19:50,0.760,1.116,0.803,1.401,0.993,0.457,0.786,0.745,�쓌,4.8,�L
2018/09/21,20:00,0.758,1.114,0.801,1.403,0.992,0.456,0.783,0.746,���쓌,7.2,�L
2018/09/21,20:10,0.758,1.115,0.802,1.402,0.994,0.456,0.785,0.746,���쓌,5.8,�L
2018/09/21,20:20,0.761,1.116,0.800,1.403,0.995,0.454,0.786,0.747,���쓌,4.6,�L
2018/09/21,20:30,0.759,1.117,0.802,1.404,0.991,0.455,0.785,0.745,���쓌,5.2,�L
2018/09/21,20:40,0.758,1.119,0.802,1.408,0.994,0.456,0.785,0.744,���쓌,4.4,�L
2018/09/21,20:50,0.759,1.116,0.801,1.400,0.992,0.454,0.786,0.746,��,6.5,�L
2018/09/21,21:00,0.759,1.116,0.802,1.402,0.993,0.454,0.785,0.746,��,7.5,�L
2018/09/21,21:10,0.758,1.117,0.799,1.405,0.993,0.454,0.786,0.745,��,5.9,�L
2018/09/21,21:20,0.758,1.120,0.800,1.405,0.994,0.454,0.786,0.744,��,4.4,�L
2018/09/21,21:30,0.760,1.119,0.803,1.407,0.996,0.454,0.785,0.746,��,3.9,�L
2018/09/21,21:40,0.760,1.118,0.801,1.405,0.994,0.454,0.786,0.746,��,3.2,�L
2018/09/21,21:50,0.756,1.114,0.799,1.402,0.992,0.453,0.785,0.744,���쓌,3.7,�L
2018/09/21,22:00,0.758,1.113,0.799,1.399,0.989,0.457,0.785,0.746,��,4.1,�L
2018/09/21,22:10,0.758,1.114,0.797,1.398,0.989,0.455,0.786,0.743,���k��,4.1,�L
2018/09/21,22:20,0.757,1.110,0.798,1.397,0.988,0.454,0.784,0.744,���k��,4.9,�L
2018/09/21,22:30,0.756,1.112,0.799,1.398,0.990,0.453,0.783,0.743,���k��,4.2,�L
2018/09/21,22:40,0.758,1.113,0.800,1.400,0.992,0.455,0.784,0.744,���k��,4.4,�L
2018/09/21,22:50,0.759,1.114,0.799,1.400,0.992,0.454,0.783,0.745,���k��,3.9,�L
2018/09/21,23:00,0.758,1.114,0.800,1.403,0.991,0.454,0.785,0.744,�k��,3.6,�L
2018/09/21,23:10,0.758,1.116,0.798,1.400,0.992,0.453,0.783,0.744,�k��,4.0,�L
2018/09/21,23:20,0.755,1.112,0.797,1.399,0.988,0.454,0.783,0.743,�k��,4.6,�L
2018/09/21,23:30,0.754,1.106,0.797,1.394,0.986,0.452,0.783,0.743,�k�k��,5.3,�L
2018/09/21,23:40,0.755,1.106,0.797,1.396,0.988,0.453,0.783,0.744,�k��,5.6,�L
2018/09/21,23:50,0.756,1.109,0.798,1.397,0.989,0.453,0.785,0.745,�k��,4.9,�L
